Home > Time Zones > World Clock > Weather > China > Sian > Past weeks

Flag for China Weather past 2 weeks in Sian, Shaanxi, China

Now
70 °F

Passing clouds.


Feels Like: 70 °F
Forecast: 64 / 74 °F
Wind: No wind

Location: Xian/Xianyang

Current Time: Aug 4, 2015 at 4:00:25 AM

Latest Report: Aug 4, 2015 at 3:00 AM


Visibility: N/A

Pressure: 29.77 "Hg

Humidity: 94%

Dew point: 68 °F

Location of SianLocation

Historic Weather in Sian — Graph

°F

Sian temperature yesterday

Maximum temperature yesterday: 88 °F (at 3:00 PM)
Minimum temperature yesterday: 72 °F (at 9:00 PM)
Average temperature yesterday: 77 °F

Past Weeks' High & Low Weather Summary

 TemperatureHumidityPressure
High102 °F (Jul 30, 5:00 PM)100% (Aug 3, 1:00 AM)29.83 "Hg (Aug 3, 1:00 AM)
Low63 °F (Jul 25, 5:00 AM)24% (Jul 24, 7:00 PM)29.50 "Hg (Aug 2, 4:00 PM)
Average83 °F64%29.66 "Hg
* Reported Jul 20 2:00 AM — Aug 4 2:00 AM, Sian, Weather by CustomWeather, © 2015

Note: Actual official high and low records may vary slightly from our data, if they occured in-between our weather recording intervals... More about our weather records

Advertising

Sian weather history for previous 24 hours

 ConditionsComfort  
Time TempWeatherWind HumidityBarometerVisibility
2:00 AM
Tue, Aug 4
70 °FLight rain. Passing clouds.No wind100%29.77 "HgN/A
12:00 AM72 °FLight rain. Mostly cloudy.3 mph88%29.80 "HgN/A
11:00 PM
Mon, Aug 3
72 °FLight rain. Mostly cloudy.6 mph88%29.77 "HgN/A
10:00 PM72 °FMostly cloudy.6 mph88%29.77 "HgN/A
9:00 PM72 °FLight rain. Mostly cloudy.10 mph88%29.74 "HgN/A
8:00 PM73 °FMore clouds than sun.8 mph78%29.71 "HgN/A
7:00 PM75 °FPartly sunny.8 mph78%29.68 "HgN/A
6:00 PM77 °FPartly sunny.10 mph79%29.65 "HgN/A
5:00 PM77 °FRain showers. Scattered clouds.13 mph89%29.62 "Hg4 mi
4:00 PM88 °FScattered clouds.3 mph66%29.62 "HgN/A
3:00 PM88 °FScattered clouds.1 mph62%29.62 "Hg4 mi
2:00 PM86 °FClear.1 mph66%29.62 "Hg4 mi
1:00 PM84 °FClear.1 mph74%29.65 "Hg4 mi
12:00 PM82 °FClear.1 mph79%29.65 "Hg4 mi
11:00 AM81 °FClear.1 mph84%29.65 "Hg4 mi
10:00 AM79 °FClear.1 mph89%29.65 "Hg4 mi
9:00 AM79 °FFog.No wind89%29.65 "Hg3 mi
8:00 AM77 °FFog.No wind89%29.65 "Hg3 mi
7:00 AM75 °FFog.No wind94%29.65 "Hg3 mi
6:00 AM73 °FFog.1 mph100%29.65 "Hg3 mi
5:00 AM73 °FFog.1 mph100%29.62 "Hg3 mi
4:00 AM73 °FFog.3 mph94%29.62 "Hg3 mi
Weather by CustomWeather, © 2015

See weather overviewHow to use our weather pages